Regional Weather Roundup
Issued by NWS Kansas City/Pleasant Hill, MO

Home | Current Version | Previous Version | Graphics & Text | Print | Product List | Glossary Off
Versions: 1 2 3 4 5 6 7 8 9 10 11 12 13 14 15 16 17 18 19 20 21 22 23 24 25 26 27 28 29 30 31 32 33 34 35 36 37 38 39 40 41 42 43 44 45 46 47 48 49 50

457
ASUS43 KEAX 212310
RWREAX

WEATHER ROUNDUP FOR EASTERN KANSAS AND NORTHWEST MISSOURI
NATIONAL WEATHER SERVICE KANSAS CITY/PLEASANT HILL MO
600 PM CDT SUN MAY 21 2017

KSZ040-057-103>105-MOZ028-029-037-043-220000-
...KANSAS CITY METROPOLITAN AREA...

CITY           SKY/WX    TMP DP  RH WIND       PRES   REMARKS
K.C. INTL      SUNNY     69  42  37 NW12G20   30.09S
K.C. DOWNTOWN  SUNNY     71  39  31 W12G22    30.07F
LEES SUMMIT    SUNNY     69  41  36 W12       30.09F
OLATHE - IXD   SUNNY     69  43  38 W10       30.09F
OLATHE - OJC   SUNNY     68  43  40 NW9G16    30.09F
LAWRENCE       SUNNY     71  45  39 W8        30.09F

$$

MOZ001>008-011>017-020>025-030>033-038>040-044>046-053-054-220000-
...NORTHERN AND CENTRAL MISSOURI...

CITY           SKY/WX    TMP DP  RH WIND       PRES   REMARKS
ST. JOSEPH     SUNNY     69  41  36 NW13      30.08S
MOSBY          CLEAR     68  37  32 NW13G18   30.08S
WARRENSBURG    SUNNY     68  39  34 NW8       30.08F
WHITEMAN AFB   SUNNY     69  41  35 NW10      30.08S
CLINTON        SUNNY     70  43  37 W10       30.10F
SEDALIA        SUNNY     69  45  41 NW9       30.10F
WARSAW         NOT AVBL
CHILLICOTHE      N/A     67  43  41 W8G18     30.08S
KIRKSVILLE     MOSUNNY   64  45  49 W16G23    30.06S

$$

MOZ041-047>049-056>058-063>065-088>090-097-220000-
...EASTERN AND SOUTHERN MISSOURI...

CITY           SKY/WX    TMP DP  RH WIND       PRES   REMARKS
ST. LOUIS INTL MOSUNNY   70  46  42 NW13      30.06F
SPIRIT OF STL  MOSUNNY   69  45  41 NW13      30.05F
COLUMBIA       SUNNY     67  45  45 NW12      30.09S
JEFFERSON CITY SUNNY     70  41  34 NW8       30.08S
ROLLA          SUNNY     66  44  45 W14       30.08F
OSAGE BEACH    SUNNY     67  42  40 W7        30.11F
SPRINGFIELD    SUNNY     69  44  40 NW8       30.13R
BRANSON        MOSUNNY   68  45  42 W6        30.14S
JOPLIN         SUNNY     72  50  45 NW6       30.14R
WEST PLAINS    SUNNY     70  43  37 W8        30.10F

$$

IAZ060-094-KSZ022-034>040-054-083-096-NEZ052-066-093-220000-
...KANSAS...SOUTHEAST NEBRASKA AND IOWA...

CITY           SKY/WX    TMP DP  RH WIND       PRES   REMARKS
TOPEKA         SUNNY     72  44  36 NW9       30.08F
MANHATTAN      SUNNY     73  45  36 VRB3      30.08F
EMPORIA        SUNNY     72  47  40 W7        30.10S
CHANUTE        SUNNY     74  47  38 NW9       30.12R
WICHITA        CLOUDY    71  49  45 W5        30.11S
OMAHA          MOSUNNY   68  41  37 NW16      30.04F
LINCOLN        SUNNY     70  38  31 NW12      30.06F
FALLS CITY     SUNNY     67  41  38 NW14G24   30.07S
LAMONI         MOSUNNY   62  45  53 NW16      30.06S
DES MOINES     CLOUDY    58  43  57 NW13      30.04S

$$





USA.gov is the U.S. government's official web portal to all federal, state and local government web resources and services.